Location: Malanoce
(44.2500°N, 7.4667°E)
Time: 05:57:32
(UTC+00:00)

Okean 1 Rocket - Pass Details

Date: 17 November 2025
Orbit: 599 x 628 km, 82.5° (Epoch: 09 December)

Event Time Altitude Azimuth Distance (km) Brightness Sun altitude
Rises 17:43:43 0° 175° (S) 2,890 6.6 -18.2°
Reaches altitude 10° 17:45:59 10° 171° (S) 1,985 5.7 -18.6°
Maximum altitude 17:50:16 55° 94° (E) 750 3.1 -19.4°
Enters shadow 17:51:41 37° 39° (NE) 963 3.7 -19.7°
